Flag for Madagascar Weather past 2 weeks in Antananarivo, Madagascar

Now
57 °F

Passing clouds.


Feels Like: 55 °F
Forecast: 51 / 71 °F
Wind: 12 mph from Southeast

Location: Antananarivo / Ivato

Current Time: Aug 28, 2015 at 12:52:10 AM

Latest Report: Aug 28, 2015 at 12:00 AM


Visibility: N/A

Pressure: 30.33 "Hg (26.02 "Hg at 1287m altitude)

Humidity: 100%

Dew point: 57 °F

Location of AntananarivoLocation

Historic Weather in Antananarivo — Graph

°F

Antananarivo temperature yesterday

Maximum temperature yesterday: 72 °F (at 11:30 AM)
Minimum temperature yesterday: 50 °F (at 5:00 AM)
Average temperature yesterday: 61 °F

Past Weeks' High & Low Weather Summary

 TemperatureHumidityPressure
High79 °F (Aug 23, 2:00 PM)100% (Aug 12, 11:00 PM)30.66 "Hg (Aug 12, 11:00 PM)
Low48 °F (Aug 21, 6:00 AM)44% (Aug 19, 1:30 PM)30.12 "Hg (Aug 18, 2:00 PM)
Average61 °F86%30.29 "Hg
* Reported Aug 12 11:00 PM — Aug 27 11:00 PM, Antananarivo, Weather by CustomWeather, © 2015

Note: Actual official high and low records may vary slightly from our data, if they occured in-between our weather recording intervals... More about our weather records

Advertising

Antananarivo weather history for previous 24 hours

 ConditionsComfort  
Time TempWeatherWind HumidityBarometerVisibility
11:00 PM
Thu, Aug 27
57 °FPassing clouds.12 mph100%30.36 "HgN/A
10:00 PM59 °FPassing clouds.12 mph100%30.36 "HgN/A
9:30 PM59 °FPassing clouds.9 mph100%30.36 "HgN/A
9:00 PM59 °FPassing clouds.12 mph100%30.36 "HgN/A
8:30 PM59 °FPassing clouds.8 mph100%30.33 "HgN/A
8:00 PM59 °FPassing clouds.9 mph100%30.33 "HgN/A
7:30 PM59 °FPassing clouds.13 mph100%30.33 "HgN/A
7:00 PM59 °FPassing clouds.10 mph100%30.33 "HgN/A
6:30 PM61 °FPassing clouds.8 mph88%30.30 "HgN/A
6:00 PM63 °FPassing clouds.12 mph83%30.30 "HgN/A
5:30 PM63 °FBroken clouds.10 mph83%30.30 "HgN/A
5:00 PM68 °FScattered clouds.12 mph78%30.30 "HgN/A
4:30 PM68 °FScattered clouds.12 mph73%30.27 "HgN/A
4:00 PM68 °FScattered clouds.13 mph73%30.27 "HgN/A
3:30 PM70 °FScattered clouds.15 mph69%30.27 "HgN/A
3:00 PM70 °FScattered clouds.13 mph73%30.27 "HgN/A
2:30 PM72 °FPartly sunny.14 mph65%30.27 "HgN/A
2:00 PM70 °FPartly sunny.10 mph69%30.27 "HgN/A
1:30 PM70 °FPartly sunny.12 mph69%30.30 "HgN/A
1:00 PM68 °FPartly sunny.9 mph69%30.30 "HgN/A
12:30 PM70 °FPartly sunny.10 mph69%30.30 "HgN/A
12:00 PM70 °FPartly sunny.13 mph73%30.33 "HgN/A
11:30 AM72 °FPartly sunny.10 mph69%30.33 "HgN/A
11:00 AM70 °FPartly sunny.7 mph69%30.33 "HgN/A
10:30 AM64 °FPartly sunny.9 mph78%30.36 "HgN/A
10:00 AM66 °FPartly sunny.10 mph78%30.36 "HgN/A
9:30 AM66 °FPassing clouds.7 mph78%30.36 "HgN/A
9:00 AM61 °FPassing clouds.12 mph83%30.36 "HgN/A
8:30 AM59 °FPassing clouds.8 mph88%30.36 "HgN/A
8:00 AM57 °FPassing clouds.5 mph94%30.36 "HgN/A
7:30 AM55 °FPassing clouds.No wind94%30.36 "HgN/A
7:00 AM55 °FSunny.No wind100%30.36 "Hg10 mi
6:30 AM50 °FSunny.No wind100%30.33 "Hg10 mi
6:00 AM50 °FPassing clouds.No wind100%30.33 "HgN/A
5:30 AM50 °FPassing clouds.5 mph100%30.33 "HgN/A
5:00 AM50 °FPassing clouds.6 mph100%30.33 "HgN/A
4:30 AM52 °FPassing clouds.No wind100%30.30 "HgN/A
4:00 AM52 °FPassing clouds.No wind100%30.33 "HgN/A
3:00 AM52 °FPassing clouds.No wind100%30.33 "HgN/A
2:00 AM54 °FPassing clouds.3 mph100%30.33 "HgN/A
12:30 AM55 °FPassing clouds.7 mph100%30.36 "HgN/A
12:00 AM55 °FPassing clouds.8 mph100%30.36 "HgN/A
Weather by CustomWeather, © 2015

See weather overviewHow to use our weather pages